Back to Top

Language: 

My Weather Underground Personal Weather Station Historical Data with Graphs...

Delerius Weather Station Historical Data
Daily Summary for April 26, 2017 Units:  English    Metric   Both
« Previous Day
Next Day »
Daily Weekly Monthly Yearly Custom
  High: Low: Average:
Temperature: 49.8 °F 34.2 °F 42.3 °F
Dew Point: 35.8 °F 30.1 °F 32.9 °F
Humidity: 86 % 49 % 70 %
Wind Speed: 11.0 mph 0.0 mph 5 mph
Wind Gust: 20.0 mph - -
Wind:- - SW
Pressure: 30.15 in 30.05 in -
Precipitation: 0.01 in    
Historical Graphs
 
 
Tabular Data for April 26, 2017
Time Temperature Dew Point Pressure Wind Wind Speed Wind Gust Humidity Rainfall Rate (Hourly) solar Conditions
00:04 39.6 °F 34.8 °F 30.05 in NNW 6.0 mph 16.0 mph 83 % 0.00 in 0 W/m2
00:09 39.6 °F 34.8 °F 30.05 in NNW 6.0 mph 16.0 mph 83 % 0.00 in 0 W/m2
00:14 39.4 °F 34.6 °F 30.05 in NNW 6.0 mph 14.0 mph 83 % 0.00 in 0 W/m2
00:19 39.4 °F 34.6 °F 30.05 in NNW 5.0 mph 15.0 mph 83 % 0.00 in 0 W/m2
00:24 39.2 °F 34.5 °F 30.05 in NNW 6.0 mph 16.0 mph 83 % 0.00 in 0 W/m2
00:29 39.2 °F 34.5 °F 30.05 in NNW 8.0 mph 18.0 mph 83 % 0.00 in 0 W/m2
00:34 39.0 °F 34.3 °F 30.05 in NNW 9.0 mph 18.0 mph 83 % 0.00 in 0 W/m2
00:39 39.0 °F 34.6 °F 30.05 in NNW 9.0 mph 18.0 mph 84 % 0.00 in 0 W/m2
00:44 39.0 °F 34.9 °F 30.05 in NNW 8.0 mph 15.0 mph 85 % 0.00 in 0 W/m2
00:49 38.8 °F 34.7 °F 30.05 in NNW 8.0 mph 15.0 mph 85 % 0.00 in 0 W/m2
00:54 38.8 °F 34.7 °F 30.05 in NNW 8.0 mph 20.0 mph 85 % 0.00 in 0 W/m2
00:59 38.7 °F 34.5 °F 30.05 in NNW 8.0 mph 20.0 mph 85 % 0.00 in 0 W/m2
01:04 38.7 °F 34.8 °F 30.05 in NNW 8.0 mph 16.0 mph 86 % 0.00 in 0 W/m2
01:09 38.7 °F 34.8 °F 30.05 in NNW 6.0 mph 14.0 mph 86 % 0.00 in 0 W/m2
01:14 38.8 °F 34.7 °F 30.05 in NNW 6.0 mph 14.0 mph 85 % 0.00 in 0 W/m2
01:20 38.8 °F 34.7 °F 30.05 in NNW 7.0 mph 13.0 mph 85 % 0.00 in 0 W/m2
01:25 38.8 °F 34.7 °F 30.05 in NNW 7.0 mph 13.0 mph 85 % 0.00 in 0 W/m2
01:30 38.8 °F 34.7 °F 30.05 in NNW 7.0 mph 15.0 mph 85 % 0.00 in 0 W/m2
01:35 38.8 °F 35.0 °F 30.05 in NNW 7.0 mph 16.0 mph 86 % 0.00 in 0 W/m2
01:40 38.8 °F 35.0 °F 30.06 in NNW 7.0 mph 16.0 mph 86 % 0.01 in 0 W/m2
01:45 38.8 °F 35.0 °F 30.05 in NNW 8.0 mph 15.0 mph 86 % 0.01 in 0 W/m2
01:50 38.8 °F 35.0 °F 30.06 in NNW 7.0 mph 15.0 mph 86 % 0.01 in 0 W/m2
01:55 38.8 °F 35.0 °F 30.05 in NNW 6.0 mph 15.0 mph 86 % 0.01 in 0 W/m2
02:00 38.8 °F 35.0 °F 30.05 in NW 6.0 mph 13.0 mph 86 % 0.01 in 0 W/m2
02:05 38.7 °F 34.8 °F 30.06 in NNW 7.0 mph 13.0 mph 86 % 0.01 in 0 W/m2
02:10 38.7 °F 34.8 °F 30.06 in NNW 6.0 mph 13.0 mph 86 % 0.01 in 0 W/m2
02:15 38.7 °F 34.8 °F 30.06 in NNW 6.0 mph 16.0 mph 86 % 0.01 in 0 W/m2
02:20 38.8 °F 35.0 °F 30.05 in NNW 6.0 mph 16.0 mph 86 % 0.01 in 0 W/m2
02:25 38.8 °F 34.7 °F 30.06 in NNW 6.0 mph 15.0 mph 85 % 0.01 in 0 W/m2
02:30 38.8 °F 34.4 °F 30.06 in NNW 8.0 mph 16.0 mph 84 % 0.01 in 0 W/m2
02:35 38.8 °F 34.4 °F 30.06 in NNW 7.0 mph 16.0 mph 84 % 0.01 in 0 W/m2
02:40 38.8 °F 34.4 °F 30.06 in NNW 6.0 mph 14.0 mph 84 % 0.00 in 0 W/m2
02:45 38.8 °F 34.4 °F 30.06 in NNW 7.0 mph 18.0 mph 84 % 0.00 in 0 W/m2
02:50 38.7 °F 34.2 °F 30.05 in NNW 7.0 mph 18.0 mph 84 % 0.00 in 0 W/m2
02:55 38.7 °F 34.2 °F 30.05 in NNW 7.0 mph 14.0 mph 84 % 0.00 in 0 W/m2
03:00 38.7 °F 34.2 °F 30.06 in NNW 6.0 mph 12.0 mph 84 % 0.00 in 0 W/m2
03:05 38.7 °F 34.2 °F 30.06 in NNW 6.0 mph 14.0 mph 84 % 0.00 in 0 W/m2
03:10 38.7 °F 34.2 °F 30.06 in NNW 6.0 mph 14.0 mph 84 % 0.00 in 0 W/m2
03:15 38.7 °F 34.2 °F 30.06 in NNW 6.0 mph 13.0 mph 84 % 0.00 in 0 W/m2
03:20 38.7 °F 34.2 °F 30.06 in NNW 7.0 mph 13.0 mph 84 % 0.00 in 0 W/m2
03:25 38.7 °F 34.2 °F 30.06 in NNW 7.0 mph 14.0 mph 84 % 0.00 in 0 W/m2
03:30 38.5 °F 34.1 °F 30.06 in NNW 7.0 mph 14.0 mph 84 % 0.00 in 0 W/m2
03:35 38.5 °F 33.8 °F 30.06 in NW 6.0 mph 12.0 mph 83 % 0.00 in 0 W/m2
03:40 38.3 °F 33.6 °F 30.06 in NW 6.0 mph 12.0 mph 83 % 0.00 in 0 W/m2
03:45 38.1 °F 33.7 °F 30.06 in NW 6.0 mph 13.0 mph 84 % 0.00 in 0 W/m2
03:50 38.1 °F 33.7 °F 30.06 in NW 6.0 mph 13.0 mph 84 % 0.00 in 0 W/m2
03:56 37.9 °F 33.5 °F 30.06 in NW 5.0 mph 12.0 mph 84 % 0.00 in 0 W/m2
04:01 37.9 °F 33.5 °F 30.06 in NNW 5.0 mph 11.0 mph 84 % 0.00 in 0 W/m2
04:06 37.9 °F 33.5 °F 30.06 in NNW 5.0 mph 12.0 mph 84 % 0.00 in 0 W/m2
04:11 37.9 °F 33.5 °F 30.06 in NW 6.0 mph 12.0 mph 84 % 0.00 in 0 W/m2
04:16 37.9 °F 33.5 °F 30.06 in NW 5.0 mph 10.0 mph 84 % 0.00 in 0 W/m2
04:21 37.9 °F 33.5 °F 30.06 in NNW 5.0 mph 12.0 mph 84 % 0.00 in 0 W/m2
04:26 37.9 °F 33.2 °F 30.06 in NNW 6.0 mph 14.0 mph 83 % 0.00 in 0 W/m2
04:31 37.9 °F 33.2 °F 30.06 in NNW 5.0 mph 14.0 mph 83 % 0.00 in 0 W/m2
04:36 37.9 °F 33.2 °F 30.06 in NNW 5.0 mph 14.0 mph 83 % 0.00 in 0 W/m2
04:41 37.9 °F 33.2 °F 30.06 in NNW 6.0 mph 14.0 mph 83 % 0.00 in 0 W/m2
04:46 37.8 °F 33.1 °F 30.06 in NNW 5.0 mph 14.0 mph 83 % 0.00 in 0 W/m2
04:51 37.8 °F 33.1 °F 30.06 in NNW 6.0 mph 14.0 mph 83 % 0.00 in 0 W/m2
04:56 37.8 °F 33.1 °F 30.06 in NNW 6.0 mph 13.0 mph 83 % 0.00 in 0 W/m2
05:01 37.8 °F 33.1 °F 30.07 in NNW 6.0 mph 12.0 mph 83 % 0.00 in 0 W/m2
05:06 37.8 °F 33.1 °F 30.07 in NNW 6.0 mph 12.0 mph 83 % 0.00 in 0 W/m2
05:11 37.9 °F 33.2 °F 30.07 in NNW 5.0 mph 13.0 mph 83 % 0.00 in 0 W/m2
05:16 37.9 °F 33.2 °F 30.07 in NNW 6.0 mph 13.0 mph 83 % 0.00 in 0 W/m2
05:21 37.9 °F 33.2 °F 30.07 in NW 6.0 mph 12.0 mph 83 % 0.00 in 0 W/m2
05:26 37.9 °F 32.9 °F 30.07 in NW 6.0 mph 12.0 mph 82 % 0.00 in 0 W/m2
05:31 37.9 °F 32.9 °F 30.07 in NW 5.0 mph 11.0 mph 82 % 0.00 in 0 W/m2
05:36 37.9 °F 32.9 °F 30.07 in NW 5.0 mph 10.0 mph 82 % 0.00 in 0 W/m2
05:41 37.8 °F 33.1 °F 30.07 in NW 5.0 mph 11.0 mph 83 % 0.00 in 0 W/m2
05:46 37.8 °F 32.8 °F 30.07 in NW 5.0 mph 11.0 mph 82 % 0.00 in 5 W/m2
05:51 37.6 °F 32.6 °F 30.07 in NW 5.0 mph 16.0 mph 82 % 0.00 in 7 W/m2
05:56 37.6 °F 32.6 °F 30.07 in NW 6.0 mph 16.0 mph 82 % 0.00 in 9 W/m2
06:01 37.4 °F 32.4 °F 30.07 in NW 7.0 mph 14.0 mph 82 % 0.00 in 12 W/m2
06:06 37.2 °F 32.2 °F 30.08 in NW 6.0 mph 14.0 mph 82 % 0.00 in 18 W/m2
06:11 37.2 °F 32.2 °F 30.08 in NW 5.0 mph 10.0 mph 82 % 0.00 in 26 W/m2
06:16 37.2 °F 32.2 °F 30.08 in NW 4.0 mph 9.0 mph 82 % 0.00 in 25 W/m2
06:21 37.2 °F 32.2 °F 30.08 in NW 4.0 mph 10.0 mph 82 % 0.00 in 42 W/m2
06:26 37.2 °F 32.2 °F 30.08 in NW 5.0 mph 10.0 mph 82 % 0.00 in 47 W/m2
06:31 37.2 °F 32.5 °F 30.08 in NW 4.0 mph 10.0 mph 83 % 0.00 in 44 W/m2
06:36 37.2 °F 32.5 °F 30.09 in NW 3.0 mph 14.0 mph 83 % 0.00 in 53 W/m2
06:41 37.4 °F 32.4 °F 30.09 in NW 4.0 mph 14.0 mph 82 % 0.00 in 46 W/m2
06:46 37.6 °F 32.6 °F 30.09 in NNW 4.0 mph 11.0 mph 82 % 0.00 in 63 W/m2
06:51 37.6 °F 32.3 °F 30.09 in NNW 6.0 mph 14.0 mph 81 % 0.00 in 56 W/m2
06:56 37.6 °F 32.3 °F 30.09 in NW 7.0 mph 14.0 mph 81 % 0.00 in 72 W/m2
07:00 37.8 °F 32.5 °F 30.09 in NW 6.0 mph 14.0 mph 81 % 0.00 in 91 W/m2
07:05 37.9 °F 32.6 °F 30.09 in NW 5.0 mph 14.0 mph 81 % 0.00 in 46 W/m2
07:10 37.9 °F 32.6 °F 30.09 in NW 4.0 mph 11.0 mph 81 % 0.00 in 67 W/m2
07:15 38.1 °F 32.5 °F 30.09 in NW 4.0 mph 11.0 mph 80 % 0.00 in 97 W/m2
07:20 38.3 °F 32.7 °F 30.09 in NW 5.0 mph 11.0 mph 80 % 0.00 in 116 W/m2
07:25 38.8 °F 33.2 °F 30.09 in NNW 6.0 mph 16.0 mph 80 % 0.00 in 239 W/m2
07:30 39.6 °F 33.6 °F 30.09 in NNW 6.0 mph 16.0 mph 79 % 0.00 in 287 W/m2
07:35 40.1 °F 33.5 °F 30.09 in NNW 6.0 mph 12.0 mph 77 % 0.00 in 294 W/m2
07:40 40.6 °F 33.7 °F 30.09 in NNW 8.0 mph 19.0 mph 76 % 0.00 in 285 W/m2
07:45 40.8 °F 33.2 °F 30.09 in NNW 9.0 mph 19.0 mph 74 % 0.00 in 276 W/m2
07:50 40.8 °F 33.2 °F 30.09 in NNW 9.0 mph 18.0 mph 74 % 0.00 in 292 W/m2
07:55 41.0 °F 33.0 °F 30.09 in NNW 7.0 mph 15.0 mph 73 % 0.00 in 306 W/m2
08:00 41.2 °F 33.2 °F 30.10 in NNW 8.0 mph 15.0 mph 73 % 0.00 in 336 W/m2
08:05 41.4 °F 33.0 °F 30.10 in NNW 8.0 mph 18.0 mph 72 % 0.00 in 371 W/m2
08:10 41.4 °F 33.0 °F 30.10 in NNW 8.0 mph 19.0 mph 72 % 0.00 in 130 W/m2
08:15 41.2 °F 32.8 °F 30.10 in NNW 8.0 mph 19.0 mph 72 % 0.00 in 193 W/m2
08:20 41.2 °F 33.2 °F 30.10 in NNW 7.0 mph 16.0 mph 73 % 0.00 in 297 W/m2
08:25 41.7 °F 33.7 °F 30.10 in NNW 6.0 mph 13.0 mph 73 % 0.00 in 499 W/m2
08:30 42.4 °F 33.7 °F 30.10 in NNW 7.0 mph 15.0 mph 71 % 0.00 in 418 W/m2
08:35 42.8 °F 33.7 °F 30.10 in NNW 8.0 mph 15.0 mph 70 % 0.00 in 557 W/m2
08:40 43.2 °F 34.0 °F 30.10 in NNW 8.0 mph 13.0 mph 70 % 0.00 in 306 W/m2
08:45 43.5 °F 34.0 °F 30.10 in NNW 7.0 mph 13.0 mph 69 % 0.00 in 188 W/m2
08:50 43.3 °F 33.5 °F 30.10 in NNW 7.0 mph 13.0 mph 68 % 0.00 in 197 W/m2
08:55 43.0 °F 33.5 °F 30.10 in NNW 7.0 mph 13.0 mph 69 % 0.00 in 181 W/m2
09:00 42.8 °F 33.3 °F 30.11 in NNW 7.0 mph 15.0 mph 69 % 0.00 in 193 W/m2
09:05 42.4 °F 33.0 °F 30.10 in NNW 8.0 mph 15.0 mph 69 % 0.00 in 320 W/m2
09:10 42.6 °F 33.5 °F 30.10 in NNW 7.0 mph 15.0 mph 70 % 0.00 in 735 W/m2
09:15 43.5 °F 34.4 °F 30.10 in NNW 8.0 mph 18.0 mph 70 % 0.00 in 729 W/m2
09:20 44.2 °F 34.7 °F 30.10 in NNW 8.0 mph 18.0 mph 69 % 0.00 in 729 W/m2
09:25 44.8 °F 34.5 °F 30.10 in NNW 9.0 mph 20.0 mph 67 % 0.00 in 671 W/m2
09:30 44.8 °F 33.7 °F 30.10 in NNW 9.0 mph 20.0 mph 65 % 0.00 in 244 W/m2
09:35 44.8 °F 33.7 °F 30.11 in North 9.0 mph 15.0 mph 65 % 0.00 in 306 W/m2
09:40 44.2 °F 33.2 °F 30.11 in North 8.0 mph 15.0 mph 65 % 0.00 in 367 W/m2
09:45 43.9 °F 32.5 °F 30.11 in North 7.0 mph 15.0 mph 64 % 0.00 in 202 W/m2
09:50 43.9 °F 33.3 °F 30.11 in North 8.0 mph 18.0 mph 66 % 0.00 in 250 W/m2
09:55 43.9 °F 32.5 °F 30.11 in North 9.0 mph 18.0 mph 64 % 0.00 in 404 W/m2
10:00 43.9 °F 32.5 °F 30.11 in NNE 9.0 mph 18.0 mph 64 % 0.00 in 404 W/m2
10:05 44.1 °F 33.0 °F 30.11 in North 9.0 mph 18.0 mph 65 % 0.00 in 329 W/m2
10:11 44.1 °F 33.0 °F 30.10 in North 8.0 mph 13.0 mph 65 % 0.00 in 250 W/m2
10:16 44.2 °F 33.2 °F 30.11 in North 8.0 mph 18.0 mph 65 % 0.00 in 207 W/m2
10:21 44.2 °F 32.8 °F 30.10 in NNW 8.0 mph 18.0 mph 64 % 0.00 in 262 W/m2
10:26 44.2 °F 33.2 °F 30.10 in NNW 8.0 mph 18.0 mph 65 % 0.00 in 193 W/m2
10:31 44.1 °F 32.7 °F 30.11 in North 8.0 mph 18.0 mph 64 % 0.00 in 167 W/m2
10:36 43.9 °F 32.9 °F 30.11 in North 6.0 mph 14.0 mph 65 % 0.00 in 192 W/m2
10:41 44.1 °F 32.7 °F 30.11 in North 6.0 mph 14.0 mph 64 % 0.00 in 195 W/m2
10:46 44.1 °F 32.7 °F 30.11 in North 6.0 mph 13.0 mph 64 % 0.00 in 160 W/m2
10:51 44.1 °F 32.7 °F 30.11 in North 5.0 mph 12.0 mph 64 % 0.00 in 163 W/m2
10:56 43.9 °F 32.9 °F 30.11 in NNE 7.0 mph 19.0 mph 65 % 0.00 in 357 W/m2
10:57 43.9 °F 33.3 °F 30.11 in NNE 8.0 mph 19.0 mph 66 % 0.00 in 357 W/m2
11:02 44.1 °F 33.4 °F 30.11 in NNE 8.0 mph 14.0 mph 66 % 0.00 in 288 W/m2
11:08 44.1 °F 33.4 °F 30.11 in NNE 7.0 mph 13.0 mph 66 % 0.00 in 345 W/m2
11:13 44.2 °F 33.6 °F 30.11 in NNE 6.0 mph 13.0 mph 66 % 0.00 in 186 W/m2
11:18 44.2 °F 33.2 °F 30.12 in NNE 7.0 mph 15.0 mph 65 % 0.00 in 302 W/m2
11:23 44.4 °F 33.0 °F 30.11 in North 8.0 mph 15.0 mph 64 % 0.00 in 246 W/m2
11:28 44.4 °F 33.0 °F 30.12 in North 7.0 mph 15.0 mph 64 % 0.00 in 218 W/m2
11:33 44.6 °F 32.8 °F 30.12 in North 6.0 mph 15.0 mph 63 % 0.00 in 334 W/m2
11:38 45.0 °F 33.5 °F 30.12 in North 6.0 mph 15.0 mph 64 % 0.00 in 229 W/m2
11:43 45.1 °F 33.3 °F 30.12 in NNW 6.0 mph 14.0 mph 63 % 0.00 in 141 W/m2
11:48 45.0 °F 32.3 °F 30.12 in North 6.0 mph 14.0 mph 61 % 0.00 in 188 W/m2
11:53 44.8 °F 31.7 °F 30.12 in North 6.0 mph 14.0 mph 60 % 0.00 in 255 W/m2
11:58 45.0 °F 31.9 °F 30.12 in North 6.0 mph 12.0 mph 60 % 0.00 in 352 W/m2
12:03 45.3 °F 33.1 °F 30.12 in North 6.0 mph 12.0 mph 62 % 0.00 in 366 W/m2
12:08 45.7 °F 32.6 °F 30.12 in North 7.0 mph 13.0 mph 60 % 0.00 in 369 W/m2
12:13 45.9 °F 32.3 °F 30.12 in North 7.0 mph 13.0 mph 59 % 0.00 in 452 W/m2
12:18 46.4 °F 32.4 °F 30.12 in NNW 7.0 mph 14.0 mph 58 % 0.00 in 475 W/m2
12:23 46.6 °F 32.1 °F 30.12 in NNW 7.0 mph 14.0 mph 57 % 0.00 in 369 W/m2
12:28 46.6 °F 31.7 °F 30.12 in North 7.0 mph 13.0 mph 56 % 0.00 in 269 W/m2
12:33 46.9 °F 32.0 °F 30.12 in NNW 6.0 mph 12.0 mph 56 % 0.00 in 278 W/m2
12:38 47.7 °F 33.2 °F 30.12 in NNW 6.0 mph 12.0 mph 57 % 0.00 in 338 W/m2
12:43 48.0 °F 32.2 °F 30.12 in North 5.0 mph 12.0 mph 54 % 0.00 in 230 W/m2
12:48 47.8 °F 31.5 °F 30.11 in North 6.0 mph 15.0 mph 53 % 0.00 in 232 W/m2
12:53 46.9 °F 30.7 °F 30.12 in North 7.0 mph 15.0 mph 53 % 0.00 in 332 W/m2
12:58 47.5 °F 32.6 °F 30.11 in NNE 6.0 mph 13.0 mph 56 % 0.00 in 991 W/m2
13:03 48.0 °F 32.6 °F 30.11 in NNE 5.0 mph 11.0 mph 55 % 0.00 in 1090 W/m2
13:08 48.4 °F 32.9 °F 30.11 in NNE 6.0 mph 14.0 mph 55 % 0.00 in 248 W/m2
13:13 48.4 °F 32.0 °F 30.11 in NNE 6.0 mph 14.0 mph 53 % 0.00 in 237 W/m2
13:18 47.8 °F 31.5 °F 30.11 in NNE 7.0 mph 15.0 mph 53 % 0.00 in 265 W/m2
13:23 47.1 °F 32.2 °F 30.11 in NNE 8.0 mph 15.0 mph 56 % 0.00 in 693 W/m2
13:28 47.5 °F 32.6 °F 30.11 in NNE 6.0 mph 12.0 mph 56 % 0.00 in 693 W/m2
13:33 47.8 °F 32.0 °F 30.11 in NNE 6.0 mph 12.0 mph 54 % 0.00 in 299 W/m2
13:39 48.0 °F 31.7 °F 30.11 in NNE 5.0 mph 12.0 mph 53 % 0.00 in 294 W/m2
13:44 48.2 °F 30.4 °F 30.11 in North 6.0 mph 13.0 mph 50 % 0.00 in 290 W/m2
13:49 48.4 °F 31.5 °F 30.11 in North 4.0 mph 13.0 mph 52 % 0.00 in 309 W/m2
13:54 48.6 °F 31.7 °F 30.11 in NNW 3.0 mph 10.0 mph 52 % 0.00 in 167 W/m2
13:59 48.4 °F 30.6 °F 30.11 in NNW 5.0 mph 11.0 mph 50 % 0.00 in 234 W/m2
14:04 48.6 °F 31.7 °F 30.11 in NNW 6.0 mph 13.0 mph 52 % 0.00 in 1034 W/m2
14:09 49.1 °F 35.4 °F 30.12 in NNW 8.0 mph 19.0 mph 59 % 0.00 in 162 W/m2
14:14 47.8 °F 35.0 °F 30.12 in NW 10.0 mph 20.0 mph 61 % 0.00 in 130 W/m2
14:19 46.6 °F 35.8 °F 30.12 in NW 11.0 mph 20.0 mph 66 % 0.00 in 169 W/m2
14:24 45.7 °F 35.3 °F 30.12 in NW 10.0 mph 16.0 mph 67 % 0.00 in 165 W/m2
14:29 45.0 °F 34.7 °F 30.13 in NW 10.0 mph 15.0 mph 67 % 0.00 in 132 W/m2
14:34 44.6 °F 35.1 °F 30.13 in WNW 10.0 mph 16.0 mph 69 % 0.00 in 118 W/m2
14:39 44.2 °F 35.1 °F 30.12 in WNW 7.0 mph 16.0 mph 70 % 0.00 in 130 W/m2
14:44 44.2 °F 33.6 °F 30.12 in NW 6.0 mph 14.0 mph 66 % 0.00 in 149 W/m2
14:49 44.2 °F 33.2 °F 30.12 in NW 6.0 mph 14.0 mph 65 % 0.00 in 160 W/m2
14:50 44.2 °F 33.2 °F 30.12 in NW 6.0 mph 14.0 mph 65 % 0.00 in 162 W/m2
14:55 44.4 °F 33.0 °F 30.12 in WNW 6.0 mph 11.0 mph 64 % 0.00 in 213 W/m2
15:00 44.8 °F 33.3 °F 30.12 in WNW 5.0 mph 10.0 mph 64 % 0.00 in 279 W/m2
15:05 45.1 °F 32.9 °F 30.12 in WNW 4.0 mph 8.0 mph 62 % 0.00 in 334 W/m2
15:10 45.7 °F 33.0 °F 30.12 in WNW 4.0 mph 9.0 mph 61 % 0.00 in 295 W/m2
15:15 46.4 °F 32.8 °F 30.12 in WNW 4.0 mph 9.0 mph 59 % 0.00 in 283 W/m2
15:20 46.8 °F 31.9 °F 30.12 in NW 5.0 mph 14.0 mph 56 % 0.00 in 250 W/m2
15:25 47.1 °F 33.1 °F 30.12 in NW 6.0 mph 14.0 mph 58 % 0.00 in 269 W/m2
15:30 47.1 °F 32.7 °F 30.12 in NNW 5.0 mph 11.0 mph 57 % 0.00 in 295 W/m2
15:35 46.9 °F 31.6 °F 30.11 in North 5.0 mph 10.0 mph 55 % 0.00 in 278 W/m2
15:40 47.1 °F 32.2 °F 30.11 in North 4.0 mph 10.0 mph 56 % 0.00 in 288 W/m2
15:45 46.9 °F 31.6 °F 30.11 in NNE 4.0 mph 9.0 mph 55 % 0.00 in 279 W/m2
15:50 46.9 °F 30.7 °F 30.11 in NNE 4.0 mph 9.0 mph 53 % 0.00 in 276 W/m2
15:55 47.1 °F 30.9 °F 30.11 in North 2.0 mph 8.0 mph 53 % 0.00 in 278 W/m2
16:00 47.5 °F 31.2 °F 30.11 in NNW 1.0 mph 6.0 mph 53 % 0.00 in 248 W/m2
16:05 47.8 °F 31.5 °F 30.11 in NW 3.0 mph 9.0 mph 53 % 0.00 in 197 W/m2
16:10 48.0 °F 31.7 °F 30.11 in NW 5.0 mph 11.0 mph 53 % 0.00 in 181 W/m2
16:15 48.0 °F 32.2 °F 30.11 in NW 6.0 mph 11.0 mph 54 % 0.00 in 178 W/m2
16:20 48.0 °F 31.7 °F 30.11 in NW 4.0 mph 10.0 mph 53 % 0.00 in 264 W/m2
16:25 48.2 °F 32.3 °F 30.11 in NW 4.0 mph 9.0 mph 54 % 0.00 in 330 W/m2
16:30 48.7 °F 32.8 °F 30.11 in WNW 5.0 mph 9.0 mph 54 % 0.00 in 694 W/m2
16:35 49.5 °F 32.1 °F 30.11 in West 5.0 mph 9.0 mph 51 % 0.00 in 777 W/m2
16:40 49.8 °F 31.9 °F 30.11 in NW 7.0 mph 15.0 mph 50 % 0.00 in 738 W/m2
16:42 49.6 °F 31.2 °F 30.11 in NNW 7.0 mph 15.0 mph 49 % 0.00 in 272 W/m2
16:47 48.6 °F 31.7 °F 30.11 in NNE 9.0 mph 15.0 mph 52 % 0.00 in 218 W/m2
16:52 47.8 °F 32.0 °F 30.11 in NNE 6.0 mph 14.0 mph 54 % 0.00 in 190 W/m2
16:57 47.7 °F 32.3 °F 30.11 in NNE 3.0 mph 9.0 mph 55 % 0.00 in 186 W/m2
17:02 47.5 °F 32.1 °F 30.11 in NE 2.0 mph 7.0 mph 55 % 0.00 in 185 W/m2
17:07 47.5 °F 31.6 °F 30.11 in NNE 4.0 mph 10.0 mph 54 % 0.00 in 199 W/m2
17:12 47.3 °F 32.4 °F 30.11 in NNE 5.0 mph 10.0 mph 56 % 0.00 in 543 W/m2
17:17 47.5 °F 32.6 °F 30.11 in NE 4.0 mph 10.0 mph 56 % 0.00 in 232 W/m2
17:22 47.5 °F 32.6 °F 30.11 in NE 4.0 mph 9.0 mph 56 % 0.00 in 179 W/m2
17:27 47.3 °F 31.5 °F 30.11 in NNE 4.0 mph 9.0 mph 54 % 0.00 in 223 W/m2
17:32 47.5 °F 32.1 °F 30.11 in NE 4.0 mph 9.0 mph 55 % 0.00 in 527 W/m2
17:37 47.7 °F 32.3 °F 30.11 in ENE 3.0 mph 8.0 mph 55 % 0.00 in 236 W/m2
17:42 48.0 °F 32.6 °F 30.11 in ENE 2.0 mph 8.0 mph 55 % 0.00 in 438 W/m2
17:47 48.6 °F 32.7 °F 30.11 in ENE 2.0 mph 7.0 mph 54 % 0.00 in 221 W/m2
17:52 48.6 °F 32.2 °F 30.11 in NE 3.0 mph 9.0 mph 53 % 0.00 in 178 W/m2
17:57 48.7 °F 32.4 °F 30.11 in NNE 3.0 mph 9.0 mph 53 % 0.00 in 401 W/m2
18:02 48.4 °F 32.0 °F 30.11 in NE 5.0 mph 13.0 mph 53 % 0.00 in 88 W/m2
18:07 47.3 °F 31.9 °F 30.12 in NE 8.0 mph 16.0 mph 55 % 0.00 in 77 W/m2
18:13 46.8 °F 32.8 °F 30.12 in NNE 7.0 mph 16.0 mph 58 % 0.00 in 65 W/m2
18:18 46.0 °F 32.9 °F 30.12 in NNE 6.0 mph 14.0 mph 60 % 0.00 in 60 W/m2
18:23 45.7 °F 33.4 °F 30.12 in NNE 7.0 mph 12.0 mph 62 % 0.00 in 72 W/m2
18:28 45.3 °F 33.5 °F 30.12 in NNE 4.0 mph 11.0 mph 63 % 0.00 in 90 W/m2
18:33 45.3 °F 33.1 °F 30.12 in NE 2.0 mph 6.0 mph 62 % 0.00 in 81 W/m2
18:38 45.3 °F 32.7 °F 30.12 in NE 2.0 mph 7.0 mph 61 % 0.00 in 93 W/m2
18:43 45.1 °F 32.5 °F 30.12 in NE 3.0 mph 9.0 mph 61 % 0.00 in 83 W/m2
18:48 45.1 °F 32.1 °F 30.12 in NE 2.0 mph 9.0 mph 60 % 0.00 in 72 W/m2
18:53 45.3 °F 31.8 °F 30.12 in NE 1.0 mph 7.0 mph 59 % 0.00 in 156 W/m2
18:58 45.7 °F 31.3 °F 30.12 in NE 2.0 mph 8.0 mph 57 % 0.00 in 81 W/m2
19:03 45.7 °F 31.7 °F 30.12 in NE 2.0 mph 8.0 mph 58 % 0.00 in 77 W/m2
19:08 45.7 °F 31.3 °F 30.12 in NNE 4.0 mph 10.0 mph 57 % 0.00 in 74 W/m2
19:13 45.3 °F 31.0 °F 30.12 in NNE 4.0 mph 10.0 mph 57 % 0.00 in 67 W/m2
19:18 45.3 °F 31.0 °F 30.12 in NNE 4.0 mph 12.0 mph 57 % 0.00 in 56 W/m2
19:23 45.1 °F 31.2 °F 30.12 in NNE 5.0 mph 12.0 mph 58 % 0.00 in 49 W/m2
19:28 45.0 °F 31.5 °F 30.12 in NE 5.0 mph 12.0 mph 59 % 0.00 in 47 W/m2
19:33 44.8 °F 31.7 °F 30.13 in NE 4.0 mph 10.0 mph 60 % 0.00 in 51 W/m2
19:38 44.6 °F 31.6 °F 30.13 in NNE 3.0 mph 8.0 mph 60 % 0.00 in 35 W/m2
19:43 44.4 °F 31.8 °F 30.13 in NNE 4.0 mph 8.0 mph 61 % 0.00 in 32 W/m2
19:48 44.2 °F 31.6 °F 30.13 in NNE 5.0 mph 9.0 mph 61 % 0.00 in 23 W/m2
19:53 44.2 °F 32.0 °F 30.13 in NNE 4.0 mph 9.0 mph 62 % 0.00 in 19 W/m2
19:58 44.1 °F 32.3 °F 30.13 in NNE 4.0 mph 8.0 mph 63 % 0.00 in 16 W/m2
20:03 43.9 °F 32.5 °F 30.13 in NNE 2.0 mph 8.0 mph 64 % 0.00 in 14 W/m2
20:08 43.9 °F 32.5 °F 30.14 in North 1.0 mph 7.0 mph 64 % 0.00 in 11 W/m2
20:13 43.5 °F 32.1 °F 30.14 in NNE 2.0 mph 7.0 mph 64 % 0.00 in 9 W/m2
20:18 43.5 °F 32.1 °F 30.13 in NNE 2.0 mph 6.0 mph 64 % 0.00 in 7 W/m2
20:23 43.3 °F 32.0 °F 30.14 in NNE 1.0 mph 6.0 mph 64 % 0.00 in 5 W/m2
20:28 43.3 °F 32.4 °F 30.14 in Calm   4.0 mph 65 % 0.00 in 0 W/m2
20:33 43.2 °F 32.2 °F 30.14 in Calm   4.0 mph 65 % 0.00 in 0 W/m2
20:38 43.0 °F 32.0 °F 30.14 in Calm   3.0 mph 65 % 0.00 in 0 W/m2
20:43 43.0 °F 32.4 °F 30.14 in Calm   6.0 mph 66 % 0.00 in 0 W/m2
20:48 42.8 °F 32.2 °F 30.14 in NNE 1.0 mph 6.0 mph 66 % 0.00 in 0 W/m2
20:52 42.8 °F 32.2 °F 30.14 in Calm   2.0 mph 66 % 0.00 in 0 W/m2
20:57 42.8 °F 32.6 °F 30.14 in Calm   2.0 mph 67 % 0.00 in 0 W/m2
21:02 42.6 °F 32.4 °F 30.14 in Calm   2.0 mph 67 % 0.00 in 0 W/m2
21:07 42.4 °F 32.3 °F 30.14 in Calm   1.0 mph 67 % 0.00 in 0 W/m2
21:12 42.4 °F 32.6 °F 30.14 in Calm   2.0 mph 68 % 0.00 in 0 W/m2
21:17 42.3 °F 32.4 °F 30.14 in Calm   2.0 mph 68 % 0.00 in 0 W/m2
21:22 42.3 °F 32.4 °F 30.14 in Calm   2.0 mph 68 % 0.00 in 0 W/m2
21:27 42.1 °F 32.6 °F 30.14 in Calm   1.0 mph 69 % 0.00 in 0 W/m2
21:32 41.7 °F 32.3 °F 30.14 in Calm   2.0 mph 69 % 0.00 in 0 W/m2
21:37 41.5 °F 32.1 °F 30.14 in Calm   2.0 mph 69 % 0.00 in 0 W/m2
21:42 41.4 °F 32.3 °F 30.14 in Calm     70 % 0.00 in 0 W/m2
21:47 41.2 °F 32.5 °F 30.14 in Calm   1.0 mph 71 % 0.00 in 0 W/m2
21:52 40.6 °F 32.7 °F 30.14 in Calm   1.0 mph 73 % 0.00 in 0 W/m2
21:57 40.3 °F 32.6 °F 30.14 in Calm     74 % 0.00 in 0 W/m2
22:02 39.9 °F 32.6 °F 30.15 in Calm     75 % 0.00 in 0 W/m2
22:07 39.6 °F 32.6 °F 30.15 in Calm   1.0 mph 76 % 0.00 in 0 W/m2
22:12 39.0 °F 32.4 °F 30.15 in Calm   1.0 mph 77 % 0.00 in 0 W/m2
22:17 38.7 °F 32.4 °F 30.15 in Calm   1.0 mph 78 % 0.00 in 0 W/m2
22:22 38.1 °F 32.2 °F 30.15 in Calm     79 % 0.00 in 0 W/m2
22:27 37.8 °F 32.1 °F 30.15 in Calm   1.0 mph 80 % 0.00 in 0 W/m2
22:32 37.4 °F 31.8 °F 30.15 in Calm   1.0 mph 80 % 0.00 in 0 W/m2
22:37 37.0 °F 31.8 °F 30.15 in Calm     81 % 0.00 in 0 W/m2
22:42 36.9 °F 31.9 °F 30.15 in Calm   1.0 mph 82 % 0.00 in 0 W/m2
22:47 36.7 °F 31.7 °F 30.15 in Calm   1.0 mph 82 % 0.00 in 0 W/m2
22:52 36.5 °F 31.5 °F 30.15 in Calm   1.0 mph 82 % 0.00 in 0 W/m2
22:57 36.1 °F 31.5 °F 30.15 in Calm   1.0 mph 83 % 0.00 in 0 W/m2
23:02 36.0 °F 31.3 °F 30.15 in Calm   1.0 mph 83 % 0.00 in 0 W/m2
23:07 35.8 °F 31.1 °F 30.15 in Calm   1.0 mph 83 % 0.00 in 0 W/m2
23:12 35.6 °F 30.9 °F 30.15 in Calm   1.0 mph 83 % 0.00 in 0 W/m2
23:17 35.4 °F 31.1 °F 30.15 in Calm   1.0 mph 84 % 0.00 in 0 W/m2
23:22 35.2 °F 30.9 °F 30.15 in Calm     84 % 0.00 in 0 W/m2
23:27 35.2 °F 30.9 °F 30.15 in Calm     84 % 0.00 in 0 W/m2
23:32 35.1 °F 31.0 °F 30.15 in Calm     85 % 0.00 in 0 W/m2
23:37 34.9 °F 30.8 °F 30.15 in Calm     85 % 0.00 in 0 W/m2
23:42 34.7 °F 30.7 °F 30.15 in Calm     85 % 0.00 in 0 W/m2
23:47 34.5 °F 30.5 °F 30.14 in Calm     85 % 0.00 in 0 W/m2
23:52 34.3 °F 30.3 °F 30.14 in Calm     85 % 0.00 in 0 W/m2
23:57 34.2 °F 30.1 °F 30.14 in Calm     85 % 0.00 in 0 W/m2
Delerius-Weather
Compliments of Weather Underground - 2.25 mb

Data updates at regular intervals.